Theta_e
301 295 292 297 301 301 302 301 301 304 307 307 305 305 307 310 311 311 310 311 312 312 313 315 317 318 320 323 326 328 328 330 332 331 327 323 319 318 316 315 314 313 312 312
295 291 298 301 301 301 301 300 301 304 306 305 304 303 308 310 311 313 310 310 311 311 311 313 314 315 316 318 321 323 327 329 327 324 323 320 318 316 315 314 311 310 308 308
291 295 300 298 296 299 301 300 300 300 304 305 303 302 305 310 311 309 310 312 312 311 310 311 313 314 315 315 316 317 318 319 320 320 319 318 317 316 312 310 309 307 306 303
293 297 297 297 295 299 297 304 303 301 300 295 304 293 302 306 303 304 307 310 311 311 311 312 312 313 314 315 317 316 317 317 318 318 317 315 311 308 308 308 307 306 304 301
289 293 294 294 297 301 299 306 303 302 301 300 299 296 301 306 302 304 306 309 310 311 311 311 312 312 314 315 315 314 313 313 314 313 313 311 308 307 307 306 304 303 302 300
292 300 299 298 302 304 306 303 302 302 299 291 298 297 298 301 303 305 306 308 309 310 310 311 312 312 312 314 313 313 310 309 310 310 309 308 306 305 303 302 300 300 299 298
290 290 296 301 296 301 303 297 291 288 289 289 299 297 300 301 303 305 305 307 309 310 310 309 309 310 311 311 310 309 308 307 307 306 305 304 303 302 300 299 297 296 296 295
286 284 292 297 299 296 298 298 292 285 286 291 296 292 298 304 305 307 308 309 309 309 310 309 310 311 311 310 309 308 306 304 304 303 301 301 301 299 297 296 295 295 294 294
286 288 297 299 304 302 296 296 300 295 296 293 294 299 301 303 303 304 306 308 308 309 309 309 310 311 310 309 308 307 305 303 302 300 299 298 297 296 295 295 294 294 293 292
291 286 293 299 303 301 300 304 294 296 287 287 293 295 296 299 301 303 303 306 308 309 309 310 310 310 310 308 307 307 305 302 300 298 297 296 295 294 294 294 292 292 292 292
294 289 288 295 297 295 297 296 299 299 296 291 289 293 303 301 302 303 304 307 308 309 309 309 310 310 308 307 306 304 302 300 298 297 296 295 293 293 293 292 291 291 291 291
297 292 286 291 297 303 302 299 300 294 291 294 293 293 303 303 303 304 305 306 309 309 309 309 309 308 306 305 304 302 302 299 297 295 294 293 292 292 292 291 291 290 290 290
300 293 288 289 294 298 296 300 302 301 299 294 291 294 303 304 304 305 305 306 308 309 308 308 308 307 305 304 303 301 300 297 295 294 293 292 291 291 290 290 290 290 289 289
303 296 294 291 294 297 295 297 300 298 294 294 295 296 299 302 303 304 305 307 308 308 308 307 307 306 305 303 302 300 298 296 293 292 291 291 290 289 290 289 289 289 289 288
301 295 297 297 298 299 298 297 298 297 298 295 297 297 301 302 304 305 306 306 306 306 306 306 306 306 304 302 300 298 296 294 292 291 290 289 289 289 289 289 289 288 288 288
301 295 296 294 297 298 296 298 299 299 299 299 299 299 306 306 307 305 306 306 305 305 306 306 307 306 304 301 299 296 294 292 291 289 288 288 288 288 288 288 287 287 288 288
297 297 294 290 295 295 291 296 297 298 300 300 296 301 306 301 302 304 305 305 305 306 306 306 306 306 304 301 298 295 293 291 289 288 288 287 287 287 287 287 287 287 287 288
297 297 296 291 292 285 296 299 301 299 301 302 302 304 303 303 304 305 306 305 305 305 305 305 306 305 302 299 297 294 291 290 288 287 287 287 287 286 286 286 286 286 287 287
302 298 293 289 290 295 298 295 297 297 297 303 301 303 303 303 302 300 303 305 303 304 304 306 306 303 299 296 294 291 289 288 287 286 286 286 286 285 285 285 285 286 286 286
299 300 295 292 287 286 294 297 300 302 293 303 304 303 301 300 296 298 301 301 301 302 302 302 301 298 296 294 292 290 289 287 285 285 285 286 285 285 284 285 285 286 286 285
291 292 290 289 289 294 298 299 300 290 294 299 302 302 301 299 301 301 300 299 300 300 299 298 297 295 294 291 291 290 286 284 284 284 285 285 285 285 285 284 285 285 284 284
291 288 289 290 288 287 300 298 294 299 301 301 302 302 301 300 299 299 298 297 296 295 294 295 294 292 290 290 290 286 284 285 284 285 285 285 285 284 285 285 285 285 284 283
293 297 294 296 295 298 300 299 301 303 301 301 301 301 300 298 298 298 297 296 295 294 293 294 292 289 289 288 288 285 284 284 284 284 284 284 284 284 285 284 284 283 282 281
295 296 296 294 296 297 299 299 301 303 301 302 301 300 300 298 298 298 298 297 295 295 293 292 291 289 287 286 285 285 284 284 283 283 283 283 283 284 284 284 283 282 281 281
296 296 295 294 295 296 297 299 299 299 300 299 299 300 299 299 298 298 298 297 297 295 293 292 291 290 287 285 285 284 284 284 282 283 282 283 283 283 283 283 282 282 282 282
297 297 295 296 299 299 298 299 300 298 298 298 297 296 297 299 297 297 296 297 296 294 293 291 290 288 287 285 284 284 284 283 282 281 282 282 282 283 282 282 281 285 285 285
Wind_Speed
21 12 18 28 28 20 23 18 24 20 22 22 17 20 19 17 15 12 11 10 10 9 7 7 8 9 10 11 12 12 11 11 9 8 8 8 8 8 8 8 10 10 10 10
17 19 27 28 22 27 23 22 24 12 14 11 14 18 19 15 18 15 13 12 12 12 11 10 10 10 11 12 13 13 12 11 10 8 8 8 8 8 8 7 8 9 10 11
23 20 27 28 22 26 27 20 19 14 13 11 12 17 20 19 15 6 12 13 14 14 14 13 12 12 11 12 12 12 12 12 11 12 9 8 8 6 7 6 6 8 10 10
17 19 23 29 28 22 28 19 17 13 12 9 14 7 16 14 14 11 12 14 15 15 14 13 13 12 12 11 11 12 12 12 10 10 9 11 8 7 6 5 5 6 8 9
13 13 24 29 25 21 16 25 16 14 11 2 12 7 14 12 16 11 14 16 16 15 14 14 13 12 12 10 10 11 12 12 11 10 10 8 9 7 5 4 5 6 6 7
21 18 26 22 19 22 9 17 10 12 5 8 13 12 10 13 13 16 15 17 17 16 15 14 13 12 11 10 10 9 11 12 11 10 11 10 9 7 6 6 5 4 4 5
11 17 4 9 15 21 15 16 7 5 6 7 7 11 13 9 6 8 16 18 18 16 16 15 14 12 11 11 11 10 10 11 10 10 10 10 9 8 7 6 5 6 5 5
8 8 10 9 11 9 18 17 7 8 10 13 7 8 5 7 2 8 16 18 18 17 15 15 14 12 12 11 10 10 10 10 9 9 9 8 7 5 5 6 5 5 5 6
6 6 2 16 13 16 9 21 3 4 6 10 9 10 7 5 7 9 15 19 19 18 16 16 14 12 11 11 10 10 10 9 8 7 7 7 7 7 5 6 5 5 5 5
6 4 1 5 13 4 6 11 7 4 8 7 8 8 6 11 9 11 15 20 19 17 16 15 13 12 11 11 10 9 9 8 7 6 6 5 6 6 5 5 6 5 5 6
10 1 3 12 5 12 4 7 5 4 3 4 7 5 11 6 5 9 14 18 19 18 16 15 13 12 11 10 9 9 8 8 6 5 5 5 5 5 4 5 5 6 6 6
10 6 2 8 4 14 12 9 12 6 6 4 5 7 7 4 4 5 12 16 18 17 16 15 14 13 11 11 9 9 8 7 6 5 4 4 4 4 5 5 5 6 7 7
13 4 3 5 8 4 1 11 17 11 3 11 7 6 5 5 6 5 10 15 16 16 16 15 14 12 12 11 9 9 7 7 6 4 4 3 4 4 5 6 6 7 7 8
5 8 6 4 6 13 11 15 17 15 9 10 10 7 10 7 7 8 11 13 16 16 16 14 13 12 11 10 9 8 8 7 6 4 3 3 4 4 5 5 6 7 8 9
5 7 6 2 5 15 14 19 18 19 17 12 11 15 8 10 9 9 12 15 16 16 16 14 13 12 11 10 9 8 7 7 5 4 3 4 3 4 5 6 7 8 8 9
12 5 4 4 2 6 13 16 20 22 22 21 17 15 2 1 8 9 12 15 16 15 14 13 13 12 11 11 9 8 8 6 5 4 3 1 3 4 5 6 7 9 10 11
9 6 3 2 6 5 10 18 20 20 21 19 21 18 11 7 8 10 10 11 11 11 12 12 12 11 10 10 9 9 8 7 5 3 1 2 3 4 6 7 8 10 11 12
13 10 4 2 5 7 2 3 17 21 19 20 20 14 5 8 7 6 4 8 8 7 8 8 8 9 9 9 9 8 8 6 4 3 1 3 4 5 7 8 9 11 11 12
9 7 3 3 4 10 8 4 6 16 17 19 18 17 7 10 14 8 6 7 8 7 6 7 8 9 10 10 9 9 7 5 4 2 2 3 4 6 7 9 11 11 11 11
6 8 4 1 3 5 5 3 0 6 10 4 16 13 14 15 9 8 9 9 9 9 8 9 10 10 10 10 9 8 6 4 3 1 2 4 4 6 8 10 11 11 11 12
4 2 4 3 4 8 5 7 5 6 3 2 5 11 16 12 4 17 13 10 9 9 10 10 10 9 9 9 8 6 5 4 3 1 3 4 5 7 9 10 11 11 12 12
8 7 4 4 6 9 9 5 5 4 5 6 10 11 12 14 13 13 12 11 10 10 10 9 9 9 8 7 6 6 4 4 2 2 4 6 7 7 7 9 9 11 12 12
9 9 8 10 5 4 5 4 3 5 10 9 12 12 13 13 12 11 10 10 9 9 8 8 8 9 7 6 5 5 4 2 2 4 5 7 8 8 8 9 10 10 10 10
3 2 3 4 4 3 6 3 3 9 10 11 12 12 11 12 11 10 9 8 8 7 8 7 9 9 8 6 5 4 4 2 2 5 6 7 8 10 10 8 8 8 9 9
2 9 7 2 2 4 4 5 9 11 11 12 10 10 10 10 9 7 6 6 6 7 7 7 7 7 8 7 5 4 2 1 4 5 6 7 7 9 10 9 8 8 10 10
7 5 6 3 11 3 9 13 13 13 12 11 12 11 9 7 8 5 5 4 4 6 7 6 6 6 7 5 4 3 2 2 4 6 6 7 7 7 8 8 9 13 17 18
Wind_Direction
207 206 215 210 222 232 216 207 219 213 223 221 228 245 246 233 246 242 247 196 179 153 124 107 102 100 96 87 86 88 99 112 116 116 107 105 103 97 84 71 61 52 41 35
221 221 224 219 228 226 236 227 215 219 168 205 236 237 245 236 244 248 222 207 180 154 144 126 117 103 90 91 89 85 84 86 87 93 90 97 95 88 86 78 63 55 45 36
221 229 222 222 212 222 230 224 228 195 189 216 257 262 254 247 245 234 239 194 172 171 152 141 127 114 103 94 93 93 90 96 98 105 108 105 108 101 85 68 65 45 45 33
236 252 245 215 216 226 220 220 226 173 198 218 197 272 204 191 191 194 196 185 172 162 154 140 134 121 108 101 96 96 93 93 90 87 86 85 91 91 77 72 55 59 45 38
218 239 232 209 222 229 215 198 192 193 201 287 216 243 259 190 195 192 197 178 169 164 154 149 136 125 113 109 103 101 97 93 87 87 94 98 100 97 81 71 56 50 45 36
231 275 215 206 229 225 221 175 153 190 180 223 233 211 257 190 209 190 182 176 168 164 158 147 138 132 122 119 111 106 103 95 90 88 86 87 87 81 78 60 42 25 34 25
196 250 310 230 227 227 167 181 161 153 182 221 188 212 243 109 112 163 176 173 169 163 160 156 153 145 139 131 121 114 106 99 93 90 88 85 81 76 68 49 38 21 13 17
181 196 199 198 246 167 169 184 167 163 182 192 147 219 225 92 110 168 175 172 167 169 166 166 160 150 141 136 127 122 114 107 99 93 87 78 70 64 58 46 27 19 12 8
160 255 234 255 193 159 189 218 51 112 39 155 167 225 156 169 159 176 175 172 173 174 170 170 160 155 146 141 136 127 122 112 103 96 89 77 71 62 54 41 27 11 7 351
307 274 320 231 125 9 224 174 182 231 155 181 162 181 130 175 165 179 189 179 175 175 171 167 166 158 152 141 134 134 128 120 111 98 86 78 68 55 42 35 18 2 351 351
260 202 282 241 142 150 174 171 238 282 358 218 152 170 103 117 143 173 191 181 177 175 174 171 169 158 150 147 148 138 133 133 123 109 99 83 65 46 34 22 359 353 338 344
209 170 215 75 68 166 165 204 221 213 157 270 336 106 141 96 126 176 174 179 175 174 177 172 167 160 163 162 154 152 147 142 127 116 104 83 63 32 17 4 351 342 338 334
182 173 115 99 89 58 187 235 205 241 327 218 220 121 145 129 125 156 159 173 165 176 174 173 169 173 175 168 165 158 157 145 138 132 112 85 51 21 359 353 342 338 331 327
297 261 241 163 174 146 190 206 205 213 225 229 217 132 155 152 147 150 155 169 173 179 176 176 176 180 179 172 168 164 157 153 142 130 107 65 34 1 348 337 330 328 325 320
273 286 231 252 49 172 185 190 209 222 233 234 221 235 205 174 175 167 164 170 174 181 181 182 181 183 178 174 168 165 157 156 146 135 95 50 0 342 328 326 325 323 320 314
223 302 297 196 266 228 209 207 208 219 226 233 245 241 276 203 154 174 182 181 186 187 181 186 187 185 179 176 172 164 161 151 149 125 91 24 329 326 328 327 322 320 317 310
199 245 241 181 183 201 249 226 215 225 230 232 234 237 248 179 193 202 204 186 191 187 184 186 187 185 175 171 170 170 158 144 139 126 86 338 325 323 329 324 321 317 310 306
191 231 279 126 180 217 29 357 230 221 234 230 240 241 320 183 195 171 139 178 149 146 153 159 165 162 153 151 159 143 141 143 135 130 339 323 319 328 327 321 314 312 310 308
169 219 175 205 219 314 274 207 190 202 238 235 233 234 169 111 112 106 74 85 106 110 116 131 138 143 142 146 144 147 144 134 139 94 338 319 329 328 320 315 315 310 310 309
160 207 253 211 224 232 56 124 342 179 261 241 212 218 157 155 185 147 139 122 106 97 102 116 122 128 143 143 148 150 141 134 115 90 327 316 326 313 311 312 311 312 312 309
127 202 164 142 267 284 91 136 153 205 42 78 170 158 159 175 50 121 126 108 101 104 112 117 129 136 132 139 149 141 124 130 108 289 299 314 312 310 309 309 311 315 313 310
162 151 164 159 226 254 131 127 217 75 105 133 129 144 139 116 117 118 114 118 119 117 123 125 128 125 133 139 141 136 142 120 165 307 320 316 311 310 309 310 312 314 309 306
201 219 170 197 203 100 156 20 39 154 139 132 129 123 129 125 124 126 126 128 128 131 131 138 136 133 137 141 142 142 128 144 9 331 311 307 310 310 320 318 311 310 311 312
217 197 202 174 157 143 169 116 137 145 130 130 127 126 126 122 127 123 124 128 137 141 143 146 145 151 150 137 139 126 111 64 335 303 305 310 314 320 315 311 307 307 309 309
49 154 172 124 172 149 180 159 133 124 123 117 106 106 111 120 117 119 119 120 129 143 147 158 163 161 146 157 148 117 104 330 297 306 311 317 319 319 311 307 308 305 300 306
191 171 197 229 164 182 155 154 150 140 131 121 116 100 71 93 103 99 99 95 130 148 151 160 151 148 148 154 143 143 185 259 297 311 319 321 315 311 306 309 306 301 304 308